Location: Cruquius
(52.3348°N, 4.6319°E)
Time: 06:45:38
(UTC+00:00)

H-2A R/B - Pass Details

Date: 12 May 2021
Orbit: 573 x 598 km, 98.2° (Epoch: 15 June)

Event Time Altitude Azimuth Distance (km) Brightness Sun altitude
Rises 21:16:07 0° 19° (NNE) 2,850 7.5 -12.9°
Reaches altitude 10° 21:18:23 10° 26° (NNE) 1,940 6.5 -13.1°
Maximum altitude 21:22:26 45° 99° (E) 810 3.9 -13.4°
Enters shadow 21:24:52 21° 163° (SSE) 1,332 4.7 -13.6°
